Flag for Netherlands Weather past 2 weeks in Haarlem, Netherlands

Now
63 °F

Scattered clouds.


Feels Like: 63 °F
Forecast: 58 / 61 °F
Wind: 14 mph from West

Location: Amsterdam Schiphol Airport

Current Time: Aug 21, 2014 at 4:48:40 PM

Latest Report: Aug 21, 2014 at 3:55 PM


Visibility: N/A

Pressure: 29.95 "Hg

Humidity: 64%

Dew point: 50 °F

Location of HaarlemLocation

Historic Weather in Haarlem — Graph

°F

Haarlem temperature yesterday

Maximum temperature yesterday: 59 °F (at 11:55 AM)
Minimum temperature yesterday: 48 °F (at 5:55 AM)
Average temperature yesterday: 55 °F

Past Weeks' High & Low Weather Summary

 TemperatureHumidityPressure
High75 °F (Aug 7, 2:25 PM)100% (Aug 6, 6:55 PM)30.07 "Hg (Aug 6, 6:55 PM)
Low46 °F (Aug 21, 5:55 AM)47% (Aug 9, 3:55 PM)29.45 "Hg (Aug 10, 6:25 PM)
Average62 °F80%29.81 "Hg
* Reported Aug 6 3:25 PM — Aug 21 3:55 PM, Haarlem, Weather by CustomWeather, © 2014

Note: Actual official high and low records may vary slightly from our data, if they occured in-between our weather recording intervals... More about our weather records

Advertising

Haarlem weather history for previous 24 hours

 ConditionsComfort  
Time TempWeatherWind HumidityBarometerVisibility
3:55 PM
Aug 21
63 °FScattered clouds.14 mph64%29.95 "HgN/A
3:25 PM63 °FScattered showers. Scattered clouds.14 mph64%29.95 "HgN/A
2:55 PM61 °FPassing clouds.14 mph63%29.98 "HgN/A
2:25 PM61 °FPassing clouds.13 mph68%29.98 "HgN/A
1:55 PM61 °FPassing clouds.16 mph68%29.98 "HgN/A
1:25 PM63 °FScattered clouds.10 mph64%29.98 "HgN/A
12:55 PM61 °FPassing clouds.13 mph68%29.98 "HgN/A
12:25 PM61 °FPassing clouds.15 mph63%29.98 "HgN/A
11:55 AM61 °FPassing clouds.15 mph68%29.98 "HgN/A
11:25 AM61 °FPassing clouds.14 mph68%29.98 "HgN/A
10:55 AM61 °FPassing clouds.12 mph68%29.98 "HgN/A
10:25 AM59 °FPassing clouds.9 mph72%29.98 "HgN/A
9:55 AM59 °FPassing clouds.12 mph72%29.98 "HgN/A
9:25 AM59 °FPassing clouds.8 mph72%29.98 "HgN/A
8:55 AM55 °FPassing clouds.7 mph88%29.98 "HgN/A
8:25 AM54 °FPassing clouds.6 mph88%29.98 "HgN/A
7:55 AM52 °FPassing clouds.5 mph94%29.98 "HgN/A
7:25 AM50 °FPassing clouds.3 mph94%29.98 "HgN/A
6:55 AM46 °FClear.5 mph100%29.98 "Hg10 mi
6:25 AM46 °FScattered showers. Passing clouds.5 mph93%29.98 "HgN/A
5:55 AM46 °FClear.6 mph100%29.98 "Hg10 mi
5:25 AM48 °FClear.7 mph94%29.98 "Hg10 mi
4:55 AM48 °FClear.8 mph94%29.98 "Hg10 mi
4:25 AM50 °FClear.8 mph88%29.98 "Hg10 mi
3:55 AM50 °FClear.5 mph94%30.01 "Hg10 mi
3:25 AM52 °FPassing clouds.7 mph94%30.01 "HgN/A
2:55 AM52 °FClear.6 mph94%30.01 "Hg10 mi
2:25 AM50 °FSprinkles. Passing clouds.3 mph94%30.01 "HgN/A
1:55 AM52 °FClear.5 mph88%30.01 "Hg10 mi
1:25 AM50 °FClear.1 mph94%30.01 "Hg10 mi
12:55 AM50 °FClear.1 mph88%30.01 "Hg10 mi
12:25 AM48 °FClear.1 mph94%30.01 "Hg10 mi
11:55 PM
Aug 20
50 °FClear.1 mph88%30.01 "Hg10 mi
11:25 PM52 °FClear.5 mph82%30.01 "Hg10 mi
10:55 PM54 °FClear.3 mph82%30.01 "Hg10 mi
10:25 PM54 °FScattered showers. Passing clouds.8 mph82%30.01 "HgN/A
9:55 PM55 °FSprinkles. Passing clouds.8 mph82%30.01 "HgN/A
9:25 PM55 °FScattered showers. Passing clouds.7 mph77%30.01 "HgN/A
8:55 PM55 °FScattered showers. Passing clouds.5 mph77%29.98 "HgN/A
8:25 PM55 °FPassing clouds.7 mph72%29.98 "HgN/A
7:55 PM57 °FPassing clouds.3 mph67%29.98 "HgN/A
7:25 PM57 °FPassing clouds.3 mph63%29.98 "HgN/A
6:55 PM57 °FScattered clouds.8 mph72%29.98 "HgN/A
6:25 PM57 °FPassing clouds.10 mph72%29.98 "HgN/A
5:55 PM59 °FPassing clouds.9 mph77%29.98 "HgN/A
5:25 PM59 °FPassing clouds.8 mph77%29.98 "HgN/A
4:55 PM59 °FScattered clouds.9 mph77%29.98 "HgN/A
4:25 PM59 °FScattered clouds.12 mph77%29.98 "HgN/A
Weather by CustomWeather, © 2014

See weather overviewHow to use our weather pages